Location: Luxembourg
(49.6117°N, 6.1300°E)
Time: 00:52:56
(UTC+02:00)

Tiangong 2 - Pass Details

Date: 25 May 2019
Orbit: 376 x 388 km, 42.8° (Epoch: 15 June)

Event Time Altitude Azimuth Distance (km) Brightness Sun altitude
Rises 22:45:50 0° 257° (WSW) 2,237 5.3 -10.3°
Reaches altitude 10° 22:48:11 10° 240° (WSW) 1,384 4.0 -10.5°
Maximum altitude 22:50:38 21° 189° (S) 908 2.6 -10.8°
Enters shadow 22:51:45 17° 158° (SSE) 1,029 2.6 -10.9°
